,,PressureMeas_1m,,PRMeasQMR101_1,,RHStat155_1m_1,,SRMeasQMS101R_1m,,TAStat155_1m_1,,GenWind_1,,GenWind_1,
2017-08-27, 00:00:06,VALID,916.19,VALID,0.0,VALID,94.847,VALID,-0.022,VALID,20.802,VALID,125.0,VALID,1.873,
2017-08-27, 00:01:06,VALID,916.201,VALID,0.0,VALID,94.851,VALID,-0.013,VALID,20.801,VALID,134.0,VALID,2.014,
2017-08-27, 00:02:06,VALID,916.203,VALID,0.0,VALID,94.794,VALID,-0.025,VALID,20.819,VALID,130.0,VALID,1.601,
2017-08-27, 00:03:06,VALID,916.189,VALID,0.0,VALID,94.697,VALID,-0.013,VALID,20.836,VALID,128.0,VALID,1.552,
2017-08-27, 00:04:06,VALID,916.204,VALID,0.0,VALID,94.484,VALID,-0.025,VALID,20.878,VALID,122.0,VALID,1.754,
2017-08-27, 00:05:06,VALID,916.204,VALID,0.0,VALID,94.438,VALID,-0.035,VALID,20.885,VALID,117.0,VALID,1.334,
2017-08-27, 00:06:06,VALID,916.197,VALID,0.0,VALID,94.569,VALID,-0.026,VALID,20.833,VALID,123.0,VALID,1.391,
2017-08-27, 00:07:06,VALID,916.169,VALID,0.0,VALID,94.75,VALID,-0.015,VALID,20.809,VALID,121.0,VALID,1.475,
2017-08-27, 00:08:06,VALID,916.145,VALID,0.0,VALID,94.732,VALID,-0.039,VALID,20.808,VALID,115.0,VALID,1.786,
2017-08-27, 00:09:06,VALID,916.114,VALID,0.0,VALID,94.655,VALID,-0.033,VALID,20.835,VALID,120.0,VALID,1.618,
2017-08-27, 00:10:06,VALID,916.081,VALID,0.0,VALID,94.587,VALID,-0.02,VALID,20.841,VALID,107.0,VALID,1.736,
2017-08-27, 00:11:06,VALID,916.053,VALID,0.0,VALID,94.546,VALID,0.003,VALID,20.845,VALID,113.0,VALID,1.755,
2017-08-27, 00:12:06,VALID,916.031,VALID,0.0,VALID,94.462,VALID,0.008,VALID,20.868,VALID,104.0,VALID,1.442,
2017-08-27, 00:13:06,VALID,916.002,VALID,0.0,VALID,94.374,VALID,-0.004,VALID,20.879,VALID,110.0,VALID,1.411,
2017-08-27, 00:14:06,VALID,915.99,VALID,0.0,VALID,94.399,VALID,0.001,VALID,20.853,VALID,119.0,VALID,1.501,
2017-08-27, 00:15:06,VALID,915.967,VALID,0.0,VALID,94.449,VALID,-0.004,VALID,20.855,VALID,122.0,VALID,1.522,
2017-08-27, 00:16:06,VALID,915.939,VALID,0.0,VALID,94.275,VALID,0.01,VALID,20.891,VALID,122.0,VALID,1.765,
2017-08-27, 00:17:06,VALID,915.924,VALID,0.0,VALID,94.207,VALID,-0.01,VALID,20.901,VALID,130.0,VALID,1.474,
2017-08-27, 00:18:06,VALID,915.908,VALID,0.0,VALID,94.077,VALID,0.007,VALID,20.932,VALID,123.0,VALID,1.744,
2017-08-27, 00:19:06,VALID,915.896,VALID,0.0,VALID,93.93,VALID,0.003,VALID,20.962,VALID,127.0,VALID,1.5,
2017-08-27, 00:20:06,VALID,915.874,VALID,0.0,VALID,93.659,VALID,0.011,VALID,21.013,VALID,117.0,VALID,1.222,
2017-08-27, 00:21:06,VALID,915.863,VALID,0.0,VALID,93.477,VALID,0.001,VALID,21.032,VALID,123.0,VALID,1.323,
2017-08-27, 00:22:06,VALID,915.84,VALID,0.0,VALID,93.446,VALID,-0.006,VALID,21.035,VALID,117.0,VALID,0.889,
2017-08-27, 00:23:06,VALID,915.841,VALID,0.0,VALID,93.401,VALID,0.0,VALID,21.001,VALID,141.0,VALID,0.929,
2017-08-27, 00:24:06,VALID,915.814,VALID,0.0,VALID,93.523,VALID,-0.0,VALID,20.946,VALID,151.0,VALID,1.187,
2017-08-27, 00:25:06,VALID,915.825,VALID,0.0,VALID,93.753,VALID,0.003,VALID,20.944,VALID,157.0,VALID,1.371,
2017-08-27, 00:26:06,VALID,915.838,VALID,0.0,VALID,93.932,VALID,0.014,VALID,20.952,VALID,151.0,VALID,1.248,
2017-08-27, 00:27:06,VALID,915.808,VALID,0.0,VALID,93.972,VALID,0.029,VALID,20.959,VALID,179.0,VALID,0.946,
2017-08-27, 00:28:06,VALID,915.816,VALID,0.0,VALID,94.256,VALID,0.02,VALID,20.914,VALID,156.0,VALID,0.778,
2017-08-27, 00:29:06,VALID,915.812,VALID,0.0,VALID,94.103,VALID,0.032,VALID,20.922,VALID,174.0,VALID,0.818,
2017-08-27, 00:30:06,VALID,915.795,VALID,0.0,VALID,94.253,VALID,0.02,VALID,20.905,VALID,175.0,VALID,0.693,
2017-08-27, 00:31:06,VALID,915.781,VALID,0.0,VALID,94.39,VALID,0.005,VALID,20.888,VALID,178.0,VALID,0.424,
2017-08-27, 00:32:06,VALID,915.776,VALID,0.0,VALID,94.66,VALID,0.02,VALID,20.843,VALID,181.0,VALID,0.581,
2017-08-27, 00:33:06,VALID,915.746,VALID,0.0,VALID,94.688,VALID,0.013,VALID,20.793,VALID,183.0,VALID,1.244,
2017-08-27, 00:34:06,VALID,915.755,VALID,0.0,VALID,94.661,VALID,0.027,VALID,20.79,VALID,153.0,VALID,0.591,
2017-08-27, 00:35:06,VALID,915.755,VALID,0.0,VALID,94.449,VALID,0.038,VALID,20.745,VALID,124.0,VALID,0.492,
2017-08-27, 00:36:06,VALID,915.731,VALID,0.0,VALID,94.945,VALID,0.028,VALID,20.705,VALID,169.0,VALID,0.256,
2017-08-27, 00:37:06,VALID,915.711,VALID,0.0,VALID,95.277,VALID,0.02,VALID,20.691,VALID,203.0,VALID,0.273,
2017-08-27, 00:38:06,VALID,915.707,VALID,0.0,VALID,95.064,VALID,0.008,VALID,20.702,VALID,246.0,VALID,0.838,
2017-08-27, 00:39:06,VALID,915.703,VALID,0.0,VALID,94.709,VALID,0.018,VALID,20.757,VALID,251.0,VALID,1.175,
2017-08-27, 00:40:06,VALID,915.725,VALID,0.0,VALID,94.411,VALID,0.02,VALID,20.833,VALID,257.0,VALID,0.479,
2017-08-27, 00:41:06,VALID,915.724,VALID,0.0,VALID,94.568,VALID,0.003,VALID,20.84,VALID,283.0,VALID,0.27,
2017-08-27, 00:42:06,VALID,915.719,VALID,0.0,VALID,94.802,VALID,-0.004,VALID,20.816,VALID,315.0,VALID,0.162,
2017-08-27, 00:43:06,VALID,915.737,VALID,0.0,VALID,95.044,VALID,-0.008,VALID,20.745,VALID,275.0,VALID,0.491,
2017-08-27, 00:44:06,VALID,915.726,VALID,0.0,VALID,95.599,VALID,-0.0,VALID,20.636,VALID,283.0,VALID,0.514,
2017-08-27, 00:45:06,VALID,915.725,VALID,0.0,VALID,96.059,VALID,-0.007,VALID,20.558,VALID,282.0,VALID,0.725,
2017-08-27, 00:46:06,VALID,915.719,VALID,0.0,VALID,96.376,VALID,-0.003,VALID,20.495,VALID,285.0,VALID,0.521,
2017-08-27, 00:47:06,VALID,915.725,VALID,0.0,VALID,96.659,VALID,-0.009,VALID,20.441,VALID,264.0,VALID,0.438,
2017-08-27, 00:48:06,VALID,915.727,VALID,0.0,VALID,96.883,VALID,-0.015,VALID,20.399,VALID,261.0,VALID,0.475,
2017-08-27, 00:49:06,VALID,915.716,VALID,0.0,VALID,97.037,VALID,-0.013,VALID,20.35,VALID,257.0,VALID,0.554,
2017-08-27, 00:50:06,VALID,915.694,VALID,0.0,VALID,97.226,VALID,-0.024,VALID,20.314,VALID,255.0,VALID,0.658,
2017-08-27, 00:51:06,VALID,915.668,VALID,0.0,VALID,97.378,VALID,0.0,VALID,20.307,VALID,273.0,VALID,0.353,
2017-08-27, 00:52:06,VALID,915.667,VALID,0.0,VALID,97.398,VALID,-0.007,VALID,20.302,VALID,293.0,VALID,0.254,
2017-08-27, 00:53:06,VALID,915.654,VALID,0.0,VALID,97.39,VALID,-0.001,VALID,20.295,VALID,252.0,VALID,0.052,
2017-08-27, 00:54:06,VALID,915.643,VALID,0.0,VALID,97.349,VALID,-0.01,VALID,20.295,VALID,280.0,VALID,0.202,
2017-08-27, 00:55:06,VALID,915.629,VALID,0.0,VALID,97.338,VALID,-0.015,VALID,20.291,VALID,290.0,VALID,0.685,
2017-08-27, 00:56:06,VALID,915.626,VALID,0.0,VALID,97.32,VALID,0.028,VALID,20.287,VALID,280.0,VALID,0.48,
2017-08-27, 00:57:06,VALID,915.618,VALID,0.0,VALID,97.347,VALID,0.011,VALID,20.27,VALID,288.0,VALID,0.252,
2017-08-27, 00:58:06,VALID,915.619,VALID,0.0,VALID,97.434,VALID,0.022,VALID,20.257,VALID,343.0,VALID,0.482,
2017-08-27, 00:59:06,VALID,915.599,VALID,0.0,VALID,97.355,VALID,0.024,VALID,20.205,VALID,343.0,VALID,0.938,
2017-08-27, 01:00:06,VALID,915.573,VALID,0.0,VALID,97.463,VALID,0.033,VALID,20.183,VALID,304.0,VALID,0.792,
2017-08-27, 01:01:06,VALID,915.559,VALID,0.0,VALID,97.608,VALID,0.019,VALID,20.17,VALID,259.0,VALID,1.119,
2017-08-27, 01:02:06,VALID,915.555,VALID,0.0,VALID,97.746,VALID,0.011,VALID,20.154,VALID,263.0,VALID,1.044,
2017-08-27, 01:03:06,VALID,915.557,VALID,0.0,VALID,97.861,VALID,0.019,VALID,20.122,VALID,293.0,VALID,0.217,
2017-08-27, 01:04:06,VALID,915.536,VALID,0.0,VALID,97.831,VALID,0.018,VALID,20.063,VALID,305.0,VALID,0.139,
2017-08-27, 01:05:06,VALID,915.533,VALID,0.0,VALID,97.869,VALID,0.026,VALID,20.019,VALID,339.0,VALID,0.419,
2017-08-27, 01:06:06,VALID,915.526,VALID,0.0,VALID,97.922,VALID,0.014,VALID,19.99,VALID,9.0,VALID,0.797,
2017-08-27, 01:07:06,VALID,915.527,VALID,0.0,VALID,98.0,VALID,0.03,VALID,19.975,VALID,10.0,VALID,0.677,
2017-08-27, 01:08:06,VALID,915.536,VALID,0.0,VALID,98.064,VALID,0.011,VALID,19.974,VALID,10.0,VALID,0.773,
2017-08-27, 01:09:06,VALID,915.563,VALID,0.0,VALID,98.114,VALID,0.029,VALID,19.964,VALID,357.0,VALID,0.617,
2017-08-27, 01:10:06,VALID,915.577,VALID,0.0,VALID,98.189,VALID,0.01,VALID,19.971,VALID,7.0,VALID,0.764,
2017-08-27, 01:11:06,VALID,915.608,VALID,0.0,VALID,98.226,VALID,-0.038,VALID,19.96,VALID,2.0,VALID,0.769,
2017-08-27, 01:12:06,VALID,915.613,VALID,0.0,VALID,98.281,VALID,-0.039,VALID,19.963,VALID,359.0,VALID,0.51,
2017-08-27, 01:13:06,VALID,915.623,VALID,0.0,VALID,98.314,VALID,-0.044,VALID,19.972,VALID,1.0,VALID,1.542,
2017-08-27, 01:14:06,VALID,915.627,VALID,0.0,VALID,98.351,VALID,-0.036,VALID,19.974,VALID,350.0,VALID,1.058,
2017-08-27, 01:15:06,VALID,915.619,VALID,0.0,VALID,98.399,VALID,-0.047,VALID,19.965,VALID,6.0,VALID,0.814,
2017-08-27, 01:16:06,VALID,915.592,VALID,0.0,VALID,98.396,VALID,-0.045,VALID,19.96,VALID,7.0,VALID,0.3,
2017-08-27, 01:17:06,VALID,915.565,VALID,0.0,VALID,98.443,VALID,-0.057,VALID,19.976,VALID,34.0,VALID,0.636,
2017-08-27, 01:18:06,VALID,915.531,VALID,0.0,VALID,98.457,VALID,-0.035,VALID,19.96,VALID,26.0,VALID,0.709,
2017-08-27, 01:19:06,VALID,915.491,VALID,0.0,VALID,98.463,VALID,-0.046,VALID,19.953,VALID,19.0,VALID,0.633,
2017-08-27, 01:20:06,VALID,915.458,VALID,0.0,VALID,98.465,VALID,-0.052,VALID,19.932,VALID,14.0,VALID,0.59,
2017-08-27, 01:21:06,VALID,915.429,VALID,0.0,VALID,98.499,VALID,-0.036,VALID,19.931,VALID,28.0,VALID,0.677,
2017-08-27, 01:22:06,VALID,915.42,VALID,0.0,VALID,98.498,VALID,-0.037,VALID,19.936,VALID,48.0,VALID,1.03,
2017-08-27, 01:23:06,VALID,915.399,VALID,0.0,VALID,98.513,VALID,-0.039,VALID,19.92,VALID,38.0,VALID,0.921,
2017-08-27, 01:24:06,VALID,915.374,VALID,0.0,VALID,98.525,VALID,-0.039,VALID,19.911,VALID,38.0,VALID,0.654,
2017-08-27, 01:25:06,VALID,915.372,VALID,0.0,VALID,98.544,VALID,-0.027,VALID,19.898,VALID,50.0,VALID,0.687,
2017-08-27, 01:26:06,VALID,915.375,VALID,0.0,VALID,98.54,VALID,-0.01,VALID,19.879,VALID,47.0,VALID,0.815,
2017-08-27, 01:27:06,VALID,915.373,VALID,0.0,VALID,98.543,VALID,-0.003,VALID,19.862,VALID,32.0,VALID,0.789,
2017-08-27, 01:28:06,VALID,915.383,VALID,0.0,VALID,98.557,VALID,0.009,VALID,19.861,VALID,16.0,VALID,0.382,
2017-08-27, 01:29:06,VALID,915.392,VALID,0.0,VALID,98.574,VALID,-0.016,VALID,19.866,VALID,32.0,VALID,0.46,
2017-08-27, 01:30:06,VALID,915.382,VALID,0.0,VALID,98.555,VALID,-0.01,VALID,19.835,VALID,21.0,VALID,0.543,
2017-08-27, 01:31:06,VALID,915.37,VALID,0.0,VALID,98.571,VALID,-0.012,VALID,19.822,VALID,352.0,VALID,0.264,
2017-08-27, 01:32:06,VALID,915.398,VALID,0.0,VALID,98.6,VALID,-0.002,VALID,19.828,VALID,334.0,VALID,0.573,
2017-08-27, 01:33:06,VALID,915.405,VALID,0.0,VALID,98.599,VALID,-0.026,VALID,19.819,VALID,338.0,VALID,0.414,
2017-08-27, 01:34:06,VALID,915.421,VALID,0.0,VALID,98.613,VALID,-0.029,VALID,19.83,VALID,342.0,VALID,0.013,
2017-08-27, 01:35:06,VALID,915.419,VALID,0.0,VALID,98.631,VALID,-0.022,VALID,19.841,VALID,326.0,VALID,0.052,
2017-08-27, 01:36:06,VALID,915.417,VALID,0.0,VALID,98.683,VALID,-0.006,VALID,19.876,VALID,277.0,VALID,0.163,
2017-08-27, 01:37:06,VALID,915.408,VALID,0.0,VALID,98.696,VALID,0.008,VALID,19.901,VALID,274.0,VALID,0.0,
2017-08-27, 01:38:06,VALID,915.393,VALID,0.0,VALID,98.715,VALID,-0.019,VALID,19.916,VALID,274.0,VALID,0.005,
2017-08-27, 01:39:06,VALID,915.379,VALID,0.0,VALID,98.705,VALID,-0.003,VALID,19.905,VALID,339.0,VALID,0.255,
2017-08-27, 01:40:06,VALID,915.374,VALID,0.0,VALID,98.709,VALID,0.006,VALID,19.901,VALID,19.0,VALID,0.443,
2017-08-27, 01:41:06,VALID,915.362,VALID,0.0,VALID,98.678,VALID,-0.015,VALID,19.872,VALID,48.0,VALID,0.573,
2017-08-27, 01:42:06,VALID,915.355,VALID,0.0,VALID,98.678,VALID,-0.017,VALID,19.825,VALID,65.0,VALID,0.571,
2017-08-27, 01:43:06,VALID,915.334,VALID,0.0,VALID,98.664,VALID,-0.013,VALID,19.808,VALID,65.0,VALID,0.509,
2017-08-27, 01:44:06,VALID,915.33,VALID,0.0,VALID,98.663,VALID,-0.021,VALID,19.786,VALID,44.0,VALID,0.39,
2017-08-27, 01:45:06,VALID,915.329,VALID,0.0,VALID,98.69,VALID,-0.029,VALID,19.821,VALID,14.0,VALID,0.392,
2017-08-27, 01:46:06,VALID,915.333,VALID,0.0,VALID,98.718,VALID,-0.014,VALID,19.871,VALID,4.0,VALID,0.66,
2017-08-27, 01:47:06,VALID,915.348,VALID,0.0,VALID,98.707,VALID,-0.026,VALID,19.849,VALID,24.0,VALID,0.254,
2017-08-27, 01:48:06,VALID,915.368,VALID,0.0,VALID,98.717,VALID,-0.026,VALID,19.823,VALID,40.0,VALID,0.201,
2017-08-27, 01:49:06,VALID,915.369,VALID,0.0,VALID,98.696,VALID,-0.03,VALID,19.812,VALID,49.0,VALID,0.323,
2017-08-27, 01:50:06,VALID,915.361,VALID,0.0,VALID,98.713,VALID,-0.018,VALID,19.773,VALID,76.0,VALID,0.263,
2017-08-27, 01:51:06,VALID,915.341,VALID,0.0,VALID,98.69,VALID,-0.013,VALID,19.733,VALID,115.0,VALID,0.477,
2017-08-27, 01:52:06,VALID,915.308,VALID,0.0,VALID,98.68,VALID,-0.017,VALID,19.72,VALID,122.0,VALID,0.482,
2017-08-27, 01:53:06,VALID,915.258,VALID,0.0,VALID,98.698,VALID,-0.019,VALID,19.726,VALID,133.0,VALID,0.116,
2017-08-27, 01:54:06,VALID,915.229,VALID,0.0,VALID,98.716,VALID,-0.006,VALID,19.746,VALID,129.0,VALID,0.0,
2017-08-27, 01:55:06,VALID,915.199,VALID,0.0,VALID,98.72,VALID,-0.021,VALID,19.737,VALID,114.0,VALID,0.004,
2017-08-27, 01:56:06,VALID,915.175,VALID,0.0,VALID,98.701,VALID,0.012,VALID,19.716,VALID,131.0,VALID,0.371,
2017-08-27, 01:57:06,VALID,915.185,VALID,0.0,VALID,98.707,VALID,0.029,VALID,19.697,VALID,136.0,VALID,0.83,
2017-08-27, 01:58:06,VALID,915.179,VALID,0.0,VALID,98.75,VALID,0.013,VALID,19.737,VALID,144.0,VALID,0.615,
2017-08-27, 01:59:06,VALID,915.207,VALID,0.0,VALID,98.745,VALID,0.025,VALID,19.726,VALID,132.0,VALID,1.011,
2017-08-27, 02:00:06,VALID,915.198,VALID,0.0,VALID,98.718,VALID,0.025,VALID,19.67,VALID,156.0,VALID,1.071,
2017-08-27, 02:01:06,VALID,915.224,VALID,0.0,VALID,98.73,VALID,0.013,VALID,19.68,VALID,175.0,VALID,0.34,
2017-08-27, 02:02:06,VALID,915.229,VALID,0.0,VALID,98.728,VALID,0.015,VALID,19.702,VALID,119.0,VALID,0.298,
2017-08-27, 02:03:06,VALID,915.236,VALID,0.0,VALID,98.734,VALID,-0.004,VALID,19.663,VALID,86.0,VALID,0.584,
2017-08-27, 02:04:06,VALID,915.232,VALID,0.0,VALID,98.739,VALID,-0.016,VALID,19.695,VALID,106.0,VALID,0.653,
2017-08-27, 02:05:06,VALID,915.232,VALID,0.0,VALID,98.772,VALID,0.001,VALID,19.764,VALID,101.0,VALID,0.72,
2017-08-27, 02:06:06,VALID,915.205,VALID,0.0,VALID,98.771,VALID,-0.011,VALID,19.783,VALID,126.0,VALID,0.74,
2017-08-27, 02:07:06,VALID,915.205,VALID,0.0,VALID,98.76,VALID,0.001,VALID,19.745,VALID,127.0,VALID,0.732,
2017-08-27, 02:08:06,VALID,915.193,VALID,0.0,VALID,98.754,VALID,-0.002,VALID,19.715,VALID,109.0,VALID,0.977,
2017-08-27, 02:09:06,VALID,915.188,VALID,0.0,VALID,98.754,VALID,0.019,VALID,19.706,VALID,94.0,VALID,1.348,
2017-08-27, 02:10:06,VALID,915.194,VALID,0.0,VALID,98.715,VALID,0.01,VALID,19.654,VALID,90.0,VALID,1.389,
2017-08-27, 02:11:06,VALID,915.183,VALID,0.0,VALID,98.741,VALID,0.023,VALID,19.631,VALID,108.0,VALID,1.402,
2017-08-27, 02:12:06,VALID,915.18,VALID,0.0,VALID,98.717,VALID,0.015,VALID,19.622,VALID,106.0,VALID,1.439,
2017-08-27, 02:13:06,VALID,915.167,VALID,0.0,VALID,98.719,VALID,0.008,VALID,19.613,VALID,121.0,VALID,1.26,
2017-08-27, 02:14:06,VALID,915.164,VALID,0.0,VALID,98.723,VALID,0.021,VALID,19.609,VALID,123.0,VALID,1.2,
2017-08-27, 02:15:06,VALID,915.143,VALID,0.0,VALID,98.717,VALID,0.024,VALID,19.602,VALID,124.0,VALID,0.823,
2017-08-27, 02:16:06,VALID,915.127,VALID,0.0,VALID,98.732,VALID,0.014,VALID,19.603,VALID,116.0,VALID,0.445,
2017-08-27, 02:17:06,VALID,915.129,VALID,0.0,VALID,98.745,VALID,0.032,VALID,19.623,VALID,105.0,VALID,0.475,
2017-08-27, 02:18:06,VALID,915.156,VALID,0.0,VALID,98.728,VALID,0.015,VALID,19.59,VALID,121.0,VALID,1.31,
2017-08-27, 02:19:06,VALID,915.125,VALID,0.0,VALID,98.737,VALID,0.018,VALID,19.59,VALID,131.0,VALID,0.996,
2017-08-27, 02:20:06,VALID,915.123,VALID,0.0,VALID,98.763,VALID,0.022,VALID,19.609,VALID,108.0,VALID,0.721,
2017-08-27, 02:21:06,VALID,915.13,VALID,0.0,VALID,98.766,VALID,0.014,VALID,19.623,VALID,102.0,VALID,1.046,
2017-08-27, 02:22:06,VALID,915.089,VALID,0.0,VALID,98.759,VALID,0.012,VALID,19.612,VALID,88.0,VALID,1.008,
2017-08-27, 02:23:06,VALID,915.069,VALID,0.0,VALID,98.738,VALID,0.03,VALID,19.56,VALID,71.0,VALID,1.098,
2017-08-27, 02:24:06,VALID,915.067,VALID,0.0,VALID,98.76,VALID,0.025,VALID,19.576,VALID,81.0,VALID,1.101,
2017-08-27, 02:25:06,VALID,915.017,VALID,0.0,VALID,98.749,VALID,0.006,VALID,19.586,VALID,78.0,VALID,0.489,
2017-08-27, 02:26:06,VALID,915.004,VALID,0.0,VALID,98.748,VALID,-0.008,VALID,19.605,VALID,108.0,VALID,0.57,
2017-08-27, 02:27:06,VALID,914.971,VALID,0.0,VALID,98.747,VALID,0.02,VALID,19.65,VALID,102.0,VALID,1.558,
2017-08-27, 02:28:06,VALID,914.925,VALID,0.0,VALID,98.736,VALID,0.025,VALID,19.674,VALID,143.0,VALID,0.969,
2017-08-27, 02:29:06,VALID,914.916,VALID,0.0,VALID,98.697,VALID,0.012,VALID,19.761,VALID,122.0,VALID,0.802,
2017-08-27, 02:30:06,VALID,914.893,VALID,0.0,VALID,98.598,VALID,0.012,VALID,19.804,VALID,126.0,VALID,1.195,
2017-08-27, 02:31:06,VALID,914.887,VALID,0.0,VALID,98.393,VALID,-0.007,VALID,19.875,VALID,127.0,VALID,2.061,
2017-08-27, 02:32:06,VALID,914.844,VALID,0.0,VALID,97.929,VALID,0.007,VALID,19.966,VALID,132.0,VALID,1.161,
2017-08-27, 02:33:06,VALID,914.824,VALID,0.0,VALID,97.462,VALID,0.004,VALID,20.034,VALID,163.0,VALID,0.973,
2017-08-27, 02:34:06,VALID,914.794,VALID,0.0,VALID,97.202,VALID,0.006,VALID,20.079,VALID,184.0,VALID,0.949,
2017-08-27, 02:35:06,VALID,914.775,VALID,0.0,VALID,96.872,VALID,0.002,VALID,20.106,VALID,171.0,VALID,0.911,
2017-08-27, 02:36:06,VALID,914.777,VALID,0.0,VALID,96.546,VALID,0.019,VALID,20.14,VALID,183.0,VALID,0.585,
2017-08-27, 02:37:06,VALID,914.772,VALID,0.0,VALID,96.093,VALID,0.019,VALID,20.155,VALID,143.0,VALID,1.416,
2017-08-27, 02:38:06,VALID,914.766,VALID,0.0,VALID,95.43,VALID,0.009,VALID,20.243,VALID,160.0,VALID,1.593,
2017-08-27, 02:39:06,VALID,914.725,VALID,0.0,VALID,95.281,VALID,0.009,VALID,20.287,VALID,149.0,VALID,1.509,
2017-08-27, 02:40:06,VALID,914.714,VALID,0.0,VALID,95.218,VALID,-0.016,VALID,20.286,VALID,151.0,VALID,0.913,
2017-08-27, 02:41:06,VALID,914.708,VALID,0.0,VALID,95.055,VALID,0.027,VALID,20.271,VALID,107.0,VALID,0.968,
2017-08-27, 02:42:06,VALID,914.704,VALID,0.0,VALID,94.704,VALID,0.023,VALID,20.299,VALID,164.0,VALID,1.009,
2017-08-27, 02:43:06,VALID,914.696,VALID,0.0,VALID,94.615,VALID,0.011,VALID,20.325,VALID,156.0,VALID,1.282,
2017-08-27, 02:44:06,VALID,914.71,VALID,0.0,VALID,94.343,VALID,0.033,VALID,20.38,VALID,121.0,VALID,1.532,
2017-08-27, 02:45:06,VALID,914.695,VALID,0.0,VALID,93.877,VALID,0.029,VALID,20.465,VALID,166.0,VALID,1.872,
2017-08-27, 02:46:06,VALID,914.733,VALID,0.0,VALID,93.706,VALID,0.026,VALID,20.497,VALID,180.0,VALID,1.177,
2017-08-27, 02:47:06,VALID,914.743,VALID,0.0,VALID,93.77,VALID,0.021,VALID,20.471,VALID,189.0,VALID,0.89,
2017-08-27, 02:48:06,VALID,914.731,VALID,0.0,VALID,93.68,VALID,0.02,VALID,20.467,VALID,188.0,VALID,1.412,
2017-08-27, 02:49:06,VALID,914.78,VALID,0.0,VALID,93.227,VALID,0.026,VALID,20.52,VALID,158.0,VALID,0.818,
2017-08-27, 02:50:06,VALID,914.808,VALID,0.0,VALID,93.109,VALID,0.023,VALID,20.561,VALID,141.0,VALID,1.024,
2017-08-27, 02:51:06,VALID,914.805,VALID,0.0,VALID,92.652,VALID,0.029,VALID,20.597,VALID,51.0,VALID,1.668,
2017-08-27, 02:52:06,VALID,914.77,VALID,0.0,VALID,91.363,VALID,0.028,VALID,20.729,VALID,152.0,VALID,1.342,
2017-08-27, 02:53:06,VALID,914.78,VALID,0.0,VALID,90.453,VALID,0.027,VALID,20.903,VALID,157.0,VALID,1.095,
2017-08-27, 02:54:06,VALID,914.767,VALID,0.0,VALID,90.644,VALID,0.033,VALID,20.964,VALID,201.0,VALID,1.071,
2017-08-27, 02:55:06,VALID,914.759,VALID,0.0,VALID,90.646,VALID,0.035,VALID,20.915,VALID,208.0,VALID,1.455,
2017-08-27, 02:56:06,VALID,914.741,VALID,0.0,VALID,90.427,VALID,0.018,VALID,20.914,VALID,196.0,VALID,1.26,
2017-08-27, 02:57:06,VALID,914.756,VALID,0.0,VALID,91.006,VALID,0.006,VALID,20.899,VALID,280.0,VALID,0.477,
2017-08-27, 02:58:06,VALID,914.732,VALID,0.0,VALID,91.418,VALID,0.029,VALID,20.814,VALID,273.0,VALID,0.532,
2017-08-27, 02:59:06,VALID,914.725,VALID,0.0,VALID,91.75,VALID,0.028,VALID,20.721,VALID,226.0,VALID,0.968,
2017-08-27, 03:00:06,VALID,914.706,VALID,0.0,VALID,91.882,VALID,0.024,VALID,20.689,VALID,240.0,VALID,0.946,
2017-08-27, 03:01:06,VALID,914.698,VALID,0.0,VALID,93.001,VALID,0.025,VALID,20.551,VALID,264.0,VALID,1.462,
2017-08-27, 03:02:06,VALID,914.661,VALID,0.0,VALID,93.645,VALID,0.023,VALID,20.43,VALID,260.0,VALID,1.463,
2017-08-27, 03:03:06,VALID,914.678,VALID,0.0,VALID,94.775,VALID,0.025,VALID,20.261,VALID,264.0,VALID,0.962,
2017-08-27, 03:04:06,VALID,914.672,VALID,0.0,VALID,95.477,VALID,0.028,VALID,20.154,VALID,290.0,VALID,0.934,
2017-08-27, 03:05:06,VALID,914.666,VALID,0.0,VALID,95.788,VALID,0.021,VALID,20.121,VALID,291.0,VALID,0.341,
2017-08-27, 03:06:06,VALID,914.656,VALID,0.0,VALID,95.875,VALID,0.03,VALID,20.096,VALID,326.0,VALID,0.967,
2017-08-27, 03:07:06,VALID,914.685,VALID,0.0,VALID,95.707,VALID,0.037,VALID,20.118,VALID,341.0,VALID,0.704,
2017-08-27, 03:08:06,VALID,914.692,VALID,0.0,VALID,95.461,VALID,0.049,VALID,20.14,VALID,312.0,VALID,0.687,
2017-08-27, 03:09:06,VALID,914.686,VALID,0.0,VALID,95.182,VALID,0.032,VALID,20.176,VALID,277.0,VALID,0.446,
2017-08-27, 03:10:06,VALID,914.699,VALID,0.0,VALID,95.032,VALID,0.027,VALID,20.221,VALID,305.0,VALID,0.168,
2017-08-27, 03:11:06,VALID,914.706,VALID,0.0,VALID,95.247,VALID,0.029,VALID,20.195,VALID,310.0,VALID,0.439,
2017-08-27, 03:12:06,VALID,914.712,VALID,0.0,VALID,95.13,VALID,0.024,VALID,20.171,VALID,276.0,VALID,0.382,
2017-08-27, 03:13:06,VALID,914.732,VALID,0.0,VALID,94.857,VALID,0.016,VALID,20.218,VALID,254.0,VALID,0.046,
2017-08-27, 03:14:06,VALID,914.731,VALID,0.0,VALID,94.45,VALID,0.004,VALID,20.274,VALID,151.0,VALID,0.425,
2017-08-27, 03:15:06,VALID,914.72,VALID,0.0,VALID,93.067,VALID,0.007,VALID,20.467,VALID,151.0,VALID,0.847,
2017-08-27, 03:16:06,VALID,914.694,VALID,0.0,VALID,91.173,VALID,0.023,VALID,20.743,VALID,174.0,VALID,0.975,
2017-08-27, 03:17:06,VALID,914.691,VALID,0.0,VALID,90.501,VALID,0.036,VALID,20.9,VALID,138.0,VALID,1.106,
2017-08-27, 03:18:06,VALID,914.671,VALID,0.0,VALID,89.065,VALID,0.031,VALID,21.071,VALID,129.0,VALID,0.615,
2017-08-27, 03:19:06,VALID,914.681,VALID,0.0,VALID,89.692,VALID,0.021,VALID,21.116,VALID,200.0,VALID,1.077,
2017-08-27, 03:20:06,VALID,914.701,VALID,0.0,VALID,90.148,VALID,0.033,VALID,21.022,VALID,205.0,VALID,0.796,
2017-08-27, 03:21:06,VALID,914.717,VALID,0.0,VALID,90.466,VALID,0.019,VALID,20.934,VALID,185.0,VALID,1.231,
2017-08-27, 03:22:06,VALID,914.705,VALID,0.0,VALID,90.355,VALID,0.022,VALID,20.911,VALID,193.0,VALID,1.014,
2017-08-27, 03:23:06,VALID,914.691,VALID,0.0,VALID,90.218,VALID,0.025,VALID,20.942,VALID,191.0,VALID,1.334,
2017-08-27, 03:24:06,VALID,914.708,VALID,0.0,VALID,90.149,VALID,0.041,VALID,20.962,VALID,181.0,VALID,1.163,
2017-08-27, 03:25:06,VALID,914.708,VALID,0.0,VALID,90.154,VALID,0.014,VALID,20.978,VALID,183.0,VALID,1.256,
2017-08-27, 03:26:06,VALID,914.728,VALID,0.0,VALID,90.178,VALID,-0.028,VALID,20.968,VALID,175.0,VALID,1.381,
2017-08-27, 03:27:06,VALID,914.722,VALID,0.0,VALID,90.254,VALID,-0.028,VALID,20.972,VALID,185.0,VALID,1.12,
2017-08-27, 03:28:06,VALID,914.724,VALID,0.0,VALID,90.481,VALID,-0.011,VALID,20.947,VALID,177.0,VALID,0.726,
2017-08-27, 03:29:06,VALID,914.716,VALID,0.0,VALID,90.74,VALID,-0.02,VALID,20.886,VALID,177.0,VALID,0.747,
2017-08-27, 03:30:06,VALID,914.708,VALID,0.0,VALID,90.736,VALID,-0.013,VALID,20.86,VALID,174.0,VALID,1.172,
2017-08-27, 03:31:06,VALID,914.722,VALID,0.0,VALID,90.742,VALID,-0.015,VALID,20.878,VALID,182.0,VALID,1.006,
2017-08-27, 03:32:06,VALID,914.733,VALID,0.0,VALID,90.528,VALID,-0.021,VALID,20.902,VALID,185.0,VALID,1.231,
2017-08-27, 03:33:06,VALID,914.763,VALID,0.0,VALID,90.584,VALID,-0.015,VALID,20.94,VALID,166.0,VALID,0.821,
2017-08-27, 03:34:06,VALID,914.768,VALID,0.0,VALID,90.591,VALID,-0.018,VALID,20.925,VALID,181.0,VALID,0.693,
2017-08-27, 03:35:06,VALID,914.781,VALID,0.0,VALID,90.619,VALID,-0.027,VALID,20.914,VALID,183.0,VALID,0.634,
2017-08-27, 03:36:06,VALID,914.8,VALID,0.0,VALID,90.556,VALID,-0.018,VALID,20.93,VALID,209.0,VALID,0.86,
2017-08-27, 03:37:06,VALID,914.792,VALID,0.0,VALID,90.487,VALID,-0.032,VALID,20.938,VALID,187.0,VALID,1.228,
2017-08-27, 03:38:06,VALID,914.774,VALID,0.0,VALID,90.383,VALID,-0.005,VALID,20.961,VALID,188.0,VALID,0.778,